Regional Weather Roundup
Issued by NWS Goodland, KS

Home | Current Version | Previous Version | Graphics & Text | Print | Product List | Glossary On
Versions: 1 2 3 4 5 6 7 8 9 10 11 12 13 14 15 16 17 18 19 20 21 22 23 24 25 26 27 28 29 30 31 32 33 34 35 36 37 38 39 40 41 42 43 44 45 46 47 48 49 50
000
ASUS43 KGLD 191159
RWRGLD

GOODLAND FORECAST AREA HOURLY WEATHER ROUNDUP
NATIONAL WEATHER SERVICE GOODLAND KS
600 AM MDT TUE SEP 19 2017

...OFFICIAL OBSERVATIONS...

CITY           SKY/WX    TMP DP  RH WIND       PRES   REMARKS
GOODLAND KS    CLEAR     62  61  96 S15       29.72S FOG
HILL CITY KS   CLEAR     68  64  87 S9        29.73F
IMPERIAL NEB   CLOUDY    64  60  87 S12       29.68F
MCCOOK NEB     CLEAR     67  64  90 S6        29.69F
AKRON CO       CLOUDY    63  32  31 SW15      29.71F
BURLINGTON CO  CLOUDY    50  48  93 S10       29.73F
LIMON CO         N/A    N/A N/A N/A MISG      29.79F
$$

...UNOFFICIAL OBSERVATIONS...

CITY           SKY/WX    TMP DP  RH WIND       PRES   REMARKS
LENORA KS        N/A     67  32  27 MISG        N/A
NORTON KS      CLEAR     68  61  77 S5        29.72S
SHARON SPRINGS   N/A     62  60  94 S13         N/A
TRENTON NEB      N/A     66  32  28 S10         N/A
KIT CARSON CO    N/A     50  47  88 CALM        N/A
YUMA CO        FAIR      52  32  46 S7        29.69S
$$



USA.gov is the U.S. government's official web portal to all federal, state and local government web resources and services.